Weather History for Stevens Point, WI

Change the Weather History Date:

Friday, January 11, 2013

  Actual Average Record
Temperature  
Mean Temperature 36 °F -  
Max Temperature 39 °F 21 °F 46 °F (2002)
Min Temperature 32 °F 1 °F -29 °F (1979)
Degree Days  
Heating Degree Days 30    
Moisture  
Dew Point 35 °F    
Average Humidity 100    
Maximum Humidity 100    
Minimum Humidity 99    
Precipitation  
Precipitation 0.00 in - - ()
Sea Level Pressure  
Sea Level Pressure 29.64 in    
Wind  
Wind Speed 6 mph (SSE)    
Max Wind Speed 10 mph    
Max Gust Speed -    
Visibility 2 miles    
Events Fog , Rain , Snow    
Averages and records for this station are not official NWS values.
T = Trace of Precipitation, MM = Missing Value Source: NWS Daily Summary

Daily Weather History Graph

Daily Weather History Graph

Search for Another Location

Airport:

Trip Planner

Search our weather history database for the weather conditions in past years. The results will help you decide how hot, cold, wet, or windy it might be!

Date:

Astronomy

Jan. 11, 2013 Rise Set
Actual Time 7:33 AM CST 4:39 PM CST
Civil Twilight 7:00 AM CST 5:12 PM CST
Nautical Twilight 6:24 AM CST 5:48 PM CST
Astronomical Twilight 5:49 AM CST 6:23 PM CST
Moon 7:04 AM CST (1/11) 5:00 PM CST (1/11)
Length of Visible Light 10h 12m
Length of Day
9h 06m
Waning Crescent, 0% of the Moon is Illuminated
Jan 11
Waning Crescent
Jan 11
New
Jan 18
First Quarter
Jan 26
Full
Feb 3
Last Quarter

Hourly Weather History & Observations

Time (CST) Temp. Windchill Dew Point Humidity Pressure Visibility Wind Dir Wind Speed Gust Speed Precip Events Conditions
12:15 AM 32.2 °F 23.8 °F 31.8 °F 99% 29.84 in 4.0 mi ESE 10.4 mph - N/A Rain Rain
12:35 AM 32.2 °F 25.0 °F 32.0 °F 99% 29.82 in 5.0 mi ESE 8.1 mph - N/A Rain Rain
12:55 AM 32.2 °F 25.8 °F 31.8 °F 99% 29.81 in 10.0 mi East 6.9 mph - N/A   Light Drizzle
1:15 AM 32.0 °F 24.2 °F 31.8 °F 99% 29.79 in 10.0 mi East 9.2 mph - N/A   Light Drizzle
1:35 AM 32.2 °F 26.7 °F 32.0 °F 99% 29.80 in 10.0 mi SE 5.8 mph - N/A   Overcast
1:55 AM 32.2 °F 25.8 °F 32.0 °F 99% 29.79 in 2.5 mi ESE 6.9 mph - N/A   Light Drizzle
2:15 AM 32.2 °F 25.8 °F 32.0 °F 99% 29.79 in 5.0 mi ESE 6.9 mph - N/A   Overcast
2:35 AM 32.2 °F 25.0 °F 32.0 °F 99% 29.78 in 1.8 mi ESE 8.1 mph - N/A Rain Light Rain
2:55 AM 32.2 °F 25.8 °F 32.0 °F 99% 29.75 in 1.5 mi East 6.9 mph - N/A   Drizzle
3:15 AM 32.2 °F 28.9 °F 32.0 °F 99% 29.75 in 2.0 mi ESE 3.5 mph - N/A   Light Drizzle
3:35 AM 32.0 °F 28.7 °F 32.0 °F 100% 29.73 in 1.5 mi East 3.5 mph - N/A   Drizzle
3:55 AM 32.0 °F 28.7 °F 32.0 °F 100% 29.71 in 1.5 mi ENE 3.5 mph - N/A   Light Drizzle
4:15 AM 32.0 °F 28.7 °F 32.0 °F 100% 29.69 in 1.8 mi ENE 3.5 mph - N/A   Drizzle
4:35 AM 32.0 °F 28.7 °F 32.0 °F 100% 29.68 in 1.2 mi East 3.5 mph - N/A   Light Drizzle
4:55 AM 32.0 °F - 32.0 °F 100% 29.68 in 1.5 mi Calm Calm - N/A   Drizzle
5:15 AM 32.0 °F 28.7 °F 32.0 °F 100% 29.68 in 1.2 mi East 3.5 mph - N/A   Drizzle
5:35 AM 32.0 °F 28.7 °F 32.0 °F 100% 29.67 in 2.5 mi East 3.5 mph - N/A   Light Drizzle
5:55 AM 32.0 °F - 32.0 °F 100% 29.67 in 3.0 mi Calm Calm - N/A   Drizzle
6:15 AM 32.0 °F 28.7 °F 32.0 °F 100% 29.66 in 3.0 mi ESE 3.5 mph - N/A   Light Drizzle
6:35 AM 32.0 °F - 32.0 °F 100% 29.67 in 3.0 mi Calm Calm - N/A Rain Rain
6:55 AM 32.0 °F - 32.0 °F 100% 29.66 in 2.5 mi Calm Calm - N/A   Drizzle
7:15 AM 32.0 °F - 32.0 °F 100% 29.66 in 3.0 mi Calm Calm - N/A   Light Drizzle
7:35 AM 32.0 °F - 32.0 °F 100% 29.66 in 2.5 mi Calm Calm - N/A   Overcast
7:55 AM 32.0 °F 28.7 °F 32.0 °F 100% 29.65 in 2.5 mi ESE 3.5 mph - N/A   Overcast
8:15 AM 32.0 °F 28.7 °F 32.0 °F 100% 29.65 in 2.5 mi ESE 3.5 mph - N/A   Overcast
8:35 AM 32.0 °F - 32.0 °F 100% 29.64 in 2.5 mi Calm Calm - N/A   Overcast
8:55 AM 32.2 °F 26.7 °F 32.2 °F 100% 29.63 in 2.5 mi ESE 5.8 mph - N/A   Overcast
9:35 AM 33.4 °F - 33.3 °F 99% 29.65 in 3.0 mi Calm Calm - N/A   Overcast
9:55 AM 33.3 °F - 33.1 °F 99% 29.65 in 1.0 mi Calm Calm - N/A   Overcast
10:15 AM 33.8 °F - 33.8 °F 100% 29.65 in 0.2 mi Calm Calm - N/A Fog Fog
10:35 AM 34.7 °F 30.6 °F 34.7 °F 100% 29.64 in 1.0 mi South 4.6 mph - N/A   Overcast
10:55 AM 34.2 °F 29.0 °F 34.2 °F 100% 29.64 in 0.5 mi SSW 5.8 mph - N/A Fog Fog
11:15 AM 34.5 °F 30.4 °F 34.5 °F 100% 29.63 in 0.2 mi South 4.6 mph - N/A Fog Fog
11:35 AM 34.2 °F 31.2 °F 34.2 °F 100% 29.62 in 0.2 mi SSW 3.5 mph - N/A Fog Fog
11:55 AM 34.5 °F 30.4 °F 34.5 °F 100% 29.62 in 0.2 mi SSW 4.6 mph - N/A Fog Fog
12:15 PM 34.9 °F 32.0 °F 34.9 °F 100% 29.61 in 0.5 mi South 3.5 mph - N/A Fog Fog
12:35 PM 35.6 °F - 35.6 °F 100% 29.60 in 1.2 mi Calm Calm - N/A   Overcast
12:55 PM 35.4 °F 32.6 °F 35.2 °F 99% 29.62 in 2.5 mi SSW 3.5 mph - N/A   Overcast
1:15 PM 35.4 °F 29.7 °F 35.2 °F 99% 29.63 in 0.2 mi South 6.9 mph - N/A Fog Fog
1:35 PM 35.8 °F 30.1 °F 35.8 °F 100% 29.62 in 0.2 mi South 6.9 mph - N/A Fog Fog
1:55 PM 35.6 °F 30.7 °F 35.6 °F 100% 29.62 in 0.2 mi South 5.8 mph - N/A Fog Fog
2:15 PM 36.0 °F 30.3 °F 36.0 °F 100% 29.62 in 0.2 mi South 6.9 mph - N/A Fog Fog
2:35 PM 36.0 °F 31.1 °F 36.0 °F 100% 29.61 in 0.2 mi SSE 5.8 mph - N/A Fog Fog
2:55 PM 36.3 °F 31.6 °F 36.3 °F 100% 29.61 in 0.2 mi South 5.8 mph - N/A Fog Fog
3:15 PM 36.5 °F 31.8 °F 36.5 °F 100% 29.60 in 0.2 mi SSE 5.8 mph - N/A Fog Fog
3:35 PM 36.5 °F 31.0 °F 36.5 °F 100% 29.60 in 0.2 mi SSE 6.9 mph - N/A Fog Fog
3:55 PM 36.5 °F 31.8 °F 36.5 °F 100% 29.60 in 0.5 mi SSE 5.8 mph - N/A   Light Drizzle
4:15 PM 35.8 °F 30.9 °F 35.8 °F 100% 29.59 in 0.2 mi SE 5.8 mph - N/A Fog Fog
4:35 PM 35.6 °F 30.7 °F 35.6 °F 100% 29.59 in 0.8 mi SSE 5.8 mph - N/A   Overcast
4:55 PM 35.8 °F 30.9 °F 35.8 °F 100% 29.61 in 1.5 mi South 5.8 mph - N/A   Overcast
5:15 PM 35.8 °F 30.1 °F 35.8 °F 100% 29.61 in 1.5 mi South 6.9 mph - N/A   Overcast
5:35 PM 36.0 °F 31.1 °F 36.0 °F 100% 29.61 in 0.5 mi SSE 5.8 mph - N/A Fog Fog
5:55 PM 35.8 °F 31.9 °F 35.8 °F 100% 29.60 in 0.5 mi SE 4.6 mph - N/A Fog Fog
6:15 PM 35.6 °F 30.7 °F 35.6 °F 100% 29.60 in 0.5 mi SSE 5.8 mph - N/A Snow Light Snow
6:35 PM 35.6 °F 29.9 °F 35.6 °F 100% 29.59 in 0.5 mi SE 6.9 mph - N/A Fog Fog
6:55 PM 35.8 °F 30.1 °F 35.8 °F 100% 29.58 in 0.5 mi SE 6.9 mph - N/A Fog Fog
7:15 PM 36.3 °F 30.8 °F 36.3 °F 100% 29.59 in 0.5 mi SSE 6.9 mph - N/A Fog Fog
7:35 PM 36.5 °F 33.9 °F 36.5 °F 100% 29.58 in 0.5 mi SSE 3.5 mph - N/A Fog Fog
7:55 PM 36.9 °F 33.1 °F 36.9 °F 100% 29.57 in 0.5 mi SSE 4.6 mph - N/A Fog Fog
8:15 PM 37.4 °F 32.8 °F 37.4 °F 100% 29.57 in 0.5 mi SSE 5.8 mph - N/A Fog Fog
8:35 PM 37.8 °F 32.5 °F 37.8 °F 100% 29.57 in 0.5 mi SSE 6.9 mph - N/A Fog Fog
8:55 PM 37.9 °F 32.1 °F 37.9 °F 100% 29.55 in 0.5 mi SSE 8.1 mph - N/A Fog Fog
9:15 PM 38.5 °F 34.1 °F 38.5 °F 100% 29.56 in 0.5 mi South 5.8 mph - N/A Fog Fog
9:35 PM 38.5 °F 34.1 °F 38.5 °F 100% 29.55 in 0.5 mi SSE 5.8 mph - N/A Fog Fog
9:55 PM 38.7 °F 34.3 °F 38.7 °F 100% 29.54 in 0.5 mi SSE 5.8 mph - N/A Fog Fog
10:15 PM 39.0 °F 34.8 °F 39.0 °F 100% 29.53 in 0.8 mi SSE 5.8 mph - N/A   Overcast
10:35 PM 39.7 °F 33.2 °F 39.7 °F 100% 29.53 in 1.2 mi South 10.4 mph - N/A   Overcast
11:15 PM 39.9 °F 34.5 °F 39.9 °F 100% 29.51 in 0.5 mi South 8.1 mph - N/A Fog Fog
11:35 PM 39.9 °F 33.4 °F 39.9 °F 100% 29.51 in 1.2 mi South 10.4 mph - N/A   Overcast
11:55 PM 39.2 °F 32.5 °F 39.2 °F 100% 29.51 in 1.0 mi South 10.4 mph - N/A   Overcast